Theta_e
304 304 304 304 304 304 305 305 305 305 304 303 301 305 302 303 299 311 313 313 310 302 294 297 293 292 296 299 298 299 298 297 298 295 298 293 296 292 290 287 286 290 290 290 289 290 287 288 286 288 289 290 291 294 295 296 293 293 290 293 292 297 287 284 286 290 293 294 296 296 296 296 294 295 295 293 291 292 291 291 292 289 291 288 289 287 293
304 304 304 303 304 304 305 305 305 305 304 303 303 301 302 303 302 306 312 314 310 299 289 289 291 294 297 297 296 300 297 296 295 295 297 292 290 289 289 288 290 288 293 291 288 292 283 290 289 288 289 289 294 295 295 296 293 292 292 289 293 286 289 286 282 283 285 288 292 291 294 294 292 292 294 295 295 295 295 295 297 289 291 292 289 285 291
304 304 304 303 304 304 305 305 305 305 305 305 303 299 301 301 306 307 308 310 307 296 297 293 292 293 293 294 293 295 296 299 297 297 295 299 296 289 288 291 290 289 293 292 293 293 290 286 291 290 290 292 294 295 295 296 294 295 297 297 297 288 287 287 280 277 275 276 278 280 284 287 292 294 294 294 294 294 292 287 290 286 292 292 290 289 298
304 304 304 304 304 304 304 305 304 304 304 304 303 302 300 299 291 299 299 306 305 303 305 301 295 292 293 290 293 295 293 296 299 298 296 299 300 295 294 294 293 288 291 290 291 291 294 290 289 289 289 292 293 295 296 295 295 297 299 298 297 290 292 290 287 285 283 286 289 292 293 291 288 291 292 293 294 295 295 295 290 287 291 289 294 295 297
304 304 304 304 304 304 304 304 304 304 304 304 303 303 303 303 294 292 291 297 298 296 298 297 297 291 295 288 294 292 293 294 295 298 293 297 297 295 290 288 285 290 290 289 290 293 292 294 292 290 291 293 293 295 295 296 297 299 296 298 295 291 288 290 291 290 290 292 292 293 293 290 291 291 292 293 293 294 294 289 289 295 291 287 299 301 298
304 304 304 304 304 304 304 304 304 304 304 304 306 300 303 292 295 298 298 292 289 291 292 297 296 297 297 293 296 292 292 292 290 295 297 298 299 294 294 290 292 292 290 291 288 291 292 291 287 292 293 292 293 292 294 294 297 297 295 298 293 290 286 291 292 292 293 293 293 294 293 293 293 293 293 292 293 293 292 294 295 297 290 289 298 304 297
304 304 304 304 304 304 304 304 304 304 303 304 307 295 300 299 297 299 300 291 295 295 297 298 296 296 296 293 294 292 292 290 293 293 294 296 296 297 288 289 291 292 295 292 289 292 286 285 291 291 292 293 292 291 292 294 296 295 294 296 298 293 289 292 293 291 293 294 294 294 292 292 293 293 293 294 294 293 294 295 295 296 296 298 300 301 301
304 303 304 304 304 304 304 304 305 304 303 306 305 299 295 293 293 291 297 296 295 296 297 297 296 294 296 290 293 293 292 291 293 295 294 290 294 299 290 294 295 296 297 295 291 294 295 293 289 295 294 294 294 292 293 291 295 295 293 294 298 293 288 293 293 290 291 294 295 295 293 292 291 294 295 294 294 294 295 296 298 299 298 300 301 298 299
303 303 303 304 304 304 304 304 305 304 304 303 301 300 299 299 301 299 292 290 293 294 296 295 295 292 294 290 293 293 293 292 295 294 297 295 293 296 293 296 294 295 297 296 296 298 297 297 298 298 297 291 295 292 293 296 293 294 293 296 298 296 289 294 292 286 288 293 294 295 295 294 292 292 294 294 294 293 295 293 298 297 295 298 298 296 297
304 303 304 304 304 304 304 304 305 304 304 302 300 297 302 300 302 302 296 289 294 292 295 296 294 289 294 294 293 292 293 296 296 291 297 298 299 299 298 298 295 289 288 294 297 301 302 301 301 301 301 301 300 299 298 298 296 294 294 296 293 295 291 288 289 286 287 292 294 294 294 293 289 290 293 295 296 296 297 297 299 299 300 296 291 294 301
304 304 304 304 304 304 304 304 305 305 304 300 299 298 299 296 295 296 296 289 291 293 293 293 292 294 295 296 293 295 295 296 297 291 290 298 299 302 301 300 297 296 296 300 305 306 305 304 303 303 301 300 300 300 300 300 299 297 296 295 294 294 294 289 292 286 286 290 292 295 290 283 284 296 299 298 295 296 294 295 297 300 300 297 301 303 306
304 304 304 304 304 304 304 304 305 305 304 304 303 301 301 301 299 297 292 287 287 294 292 290 292 295 294 294 294 293 294 294 294 296 293 297 299 302 302 301 299 292 303 308 307 306 306 306 303 302 301 300 301 301 301 299 299 300 298 295 294 293 294 291 294 287 285 289 291 286 280 284 296 300 300 300 299 298 296 298 298 299 300 300 299 300 302
304 304 303 304 304 304 304 304 305 304 305 305 303 299 303 304 298 295 293 290 286 290 289 291 295 295 295 294 293 294 296 297 297 297 297 297 297 300 301 300 297 299 307 305 307 305 300 297 297 297 297 298 298 299 299 299 298 299 298 298 296 291 291 291 290 291 290 287 287 280 282 296 301 301 302 302 300 300 300 297 299 299 300 299 299 300 302
304 304 304 304 304 304 304 304 304 305 305 305 302 302 304 303 297 295 292 288 287 292 292 292 294 292 293 293 293 294 296 295 296 298 294 298 297 299 300 301 301 305 307 307 304 303 296 297 290 292 292 294 294 293 296 298 298 297 297 297 298 297 296 293 289 293 285 286 286 285 293 295 296 297 298 298 295 297 295 290 295 302 302 301 300 301 302
304 304 304 304 304 304 304 304 304 304 305 305 304 303 303 303 302 297 297 293 286 289 293 287 290 292 293 293 294 292 292 293 293 293 297 299 298 298 300 301 303 303 308 304 300 301 296 294 288 286 289 287 283 286 294 292 297 298 298 298 299 301 294 295 290 288 290 286 285 286 286 283 289 301 306 307 309 307 306 299 295 304 303 303 302 301 302
304 304 304 303 304 304 304 304 304 304 304 305 305 303 304 306 305 302 297 293 289 284 291 294 296 294 292 292 295 292 290 290 292 293 293 295 296 297 301 301 302 304 306 303 302 297 293 289 287 286 284 286 291 289 287 293 292 297 298 298 300 301 300 297 291 289 289 287 284 284 282 287 297 301 306 307 309 308 308 297 290 301 304 304 303 302 303
304 304 304 303 304 304 304 304 304 304 304 304 302 302 301 307 303 301 297 295 293 287 295 296 298 296 293 292 294 292 293 290 292 288 287 290 293 296 298 299 303 305 303 301 299 295 292 290 293 290 291 294 288 288 293 290 289 291 296 297 296 296 296 292 291 288 289 287 285 284 288 287 297 304 306 307 308 307 301 287 287 304 306 304 304 303 304
304 304 304 303 303 304 304 304 304 304 304 305 303 301 301 306 307 304 299 295 290 290 295 299 296 293 291 293 291 294 296 295 294 295 292 293 294 294 294 297 297 303 305 297 296 292 291 290 287 287 286 294 295 295 285 291 287 288 290 291 291 292 293 293 289 289 289 287 288 289 290 298 306 306 308 307 309 304 289 285 293 310 313 314 310 304 306
304 304 303 303 303 303 304 304 304 304 305 304 304 302 302 306 306 304 300 295 293 288 296 299 300 297 299 300 297 296 297 295 294 290 289 289 293 295 295 297 301 293 300 294 296 291 290 289 295 289 286 290 295 286 294 289 288 295 294 292 291 292 291 291 292 290 289 290 287 288 291 301 306 309 309 310 302 289 288 302 312 313 311 314 314 309 307
304 304 303 303 303 303 304 304 304 305 305 305 303 299 301 304 305 305 299 293 294 292 296 297 299 296 299 296 293 293 295 295 295 291 290 287 295 295 293 292 297 297 295 297 290 294 290 287 290 293 289 292 292 295 291 292 297 293 292 295 291 292 288 288 289 290 292 290 288 286 284 295 309 309 305 307 295 298 306 310 313 314 314 313 314 313 307
304 304 303 303 303 303 303 303 304 305 305 305 304 301 299 304 305 306 306 301 294 290 293 301 301 299 299 298 299 298 297 293 294 291 293 292 296 292 284 285 290 292 291 292 287 289 290 288 291 291 295 293 296 295 288 288 292 299 298 296 295 297 290 290 291 295 287 288 286 287 294 301 311 308 297 306 308 310 312 312 311 314 315 315 314 314 315
304 303 303 303 303 304 304 304 304 304 305 305 304 302 297 301 304 305 305 303 297 292 295 300 301 300 301 303 303 303 301 300 300 300 295 291 296 293 292 294 294 295 297 298 294 291 294 294 295 291 289 291 297 291 294 288 287 295 301 299 288 298 295 296 290 299 293 291 294 300 304 308 310 310 308 308 313 314 315 314 314 314 315 317 315 313 317
303 303 303 303 303 303 304 304 304 304 304 305 304 301 298 300 301 305 304 297 299 299 301 300 301 301 303 304 305 306 305 305 304 302 300 295 291 294 293 292 293 298 297 302 293 292 293 293 289 294 291 292 292 291 294 294 290 294 291 300 298 302 304 305 301 297 304 304 304 306 306 308 310 310 311 309 311 314 316 314 313 315 317 317 315 314 312
304 303 303 303 303 303 304 304 304 304 304 305 304 302 300 301 302 302 300 299 296 291 295 299 297 294 298 298 303 306 305 304 304 303 306 302 292 291 295 297 298 297 296 297 300 294 294 292 292 294 288 294 296 291 288 289 289 298 296 294 301 302 304 302 297 300 296 291 303 304 306 308 308 309 311 310 312 312 314 313 312 315 317 317 317 315 315
303 303 303 303 303 304 304 304 304 304 304 304 304 305 304 302 303 302 298 290 291 290 285 289 293 299 302 305 305 303 303 304 305 303 302 302 298 294 292 298 300 295 294 297 300 297 294 289 291 292 288 295 296 289 299 292 292 301 291 294 298 297 308 301 300 299 293 293 302 303 308 309 310 310 309 309 311 312 315 314 315 317 318 318 318 319 318
303 303 303 303 303 304 304 304 304 304 304 304 304 302 300 299 303 304 301 298 297 294 287 286 292 302 304 301 299 301 303 304 303 302 302 301 301 301 299 300 300 303 300 300 299 294 293 292 292 292 290 291 300 293 292 296 295 299 296 295 300 301 303 293 300 297 299 303 303 305 307 308 307 310 310 311 312 311 314 314 315 315 316 317 318 320 318
303 303 303 303 304 304 304 304 304 304 304 304 304 303 302 302 304 301 298 296 291 287 290 288 294 298 300 297 300 301 303 303 303 303 302 302 301 301 301 299 298 298 298 297 299 295 294 293 292 290 294 294 298 297 298 297 298 294 294 299 303 301 296 301 299 292 292 293 298 303 296 295 304 307 310 311 313 313 313 312 312 313 314 315 315 317 319
302 303 303 303 304 304 304 304 304 304 304 304 304 303 304 302 303 304 304 301 296 288 288 288 289 294 299 296 301 301 301 301 300 300 300 300 300 301 300 299 299 297 297 295 291 292 292 291 291 294 297 299 296 293 299 299 299 297 297 300 304 299 301 301 295 293 293 303 304 306 306 306 309 310 312 312 313 313 312 311 312 312 314 315 315 314 316
303 303 303 304 304 304 304 304 304 304 304 303 303 301 301 303 304 304 304 305 302 295 292 292 294 293 288 293 299 299 301 302 302 301 301 301 301 301 300 300 299 299 298 296 294 292 291 291 293 292 292 298 295 291 294 290 290 290 295 302 303 306 307 305 304 303 303 306 307 308 307 304 308 311 313 312 313 313 312 312 313 314 313 314 315 316 314
303 303 303 303 304 304 304 304 304 304 303 303 300 297 294 297 304 305 305 304 303 301 290 287 284 287 297 297 296 298 299 301 301 301 300 300 299 299 299 300 299 299 298 295 294 290 292 293 293 299 301 304 296 294 291 292 291 294 300 305 306 305 306 306 308 305 303 308 308 308 309 312 313 313 315 315 315 312 312 312 312 313 314 315 314 315 316
303 303 303 303 304 304 304 304 304 304 303 301 298 291 289 288 298 305 303 305 305 299 292 290 286 291 290 297 298 296 298 299 299 299 300 300 300 301 302 301 300 300 295 295 294 293 293 291 292 295 300 300 296 293 292 292 290 294 299 301 303 304 306 306 308 311 310 310 310 311 311 312 314 314 313 314 314 314 313 314 313 312 314 314 313 315 315
303 303 303 304 304 304 304 304 304 303 302 298 295 294 295 297 300 304 304 303 303 297 290 286 285 287 287 291 296 300 298 298 299 300 300 301 299 300 300 300 298 301 297 294 295 294 293 294 293 296 296 300 297 294 295 293 290 293 300 301 303 304 305 307 308 308 311 311 310 307 308 309 312 310 310 314 314 315 315 314 314 314 314 315 315 315 316
303 303 303 304 304 304 304 304 304 303 301 302 304 303 303 302 302 303 303 303 299 295 295 288 284 286 285 289 296 297 299 300 298 299 296 302 298 301 297 301 300 299 304 297 293 292 296 294 294 293 297 302 294 293 292 290 293 298 300 301 303 304 304 305 307 308 309 311 310 305 305 307 309 311 313 314 314 314 314 313 313 313 314 313 313 314 315
303 303 304 304 304 304 304 304 304 303 303 300 296 298 303 303 303 303 304 303 297 297 293 287 284 284 285 294 289 296 300 293 293 296 291 299 300 298 295 298 299 293 297 294 295 295 296 296 293 293 297 293 297 293 289 293 297 298 300 301 303 303 304 305 306 306 310 310 311 310 310 311 314 314 314 313 313 314 314 313 312 312 312 312 312 313 314
303 304 304 304 304 304 303 303 301 299 296 298 298 303 303 301 304 306 303 299 291 288 288 289 288 284 284 286 285 292 299 295 292 295 291 295 301 296 297 292 295 291 293 301 294 294 293 293 298 292 290 296 292 289 291 295 297 299 301 301 302 303 303 303 304 308 309 311 310 309 310 313 313 311 310 311 311 312 313 312 312 311 311 312 312 313 313
303 304 304 304 303 303 302 301 300 297 296 296 298 302 302 302 303 305 305 303 297 290 288 287 287 284 286 282 283 290 298 293 296 296 296 295 295 299 297 294 288 293 299 295 291 296 292 299 295 289 294 290 289 292 295 298 298 299 301 301 303 303 303 303 304 307 308 309 310 311 311 311 310 310 311 310 311 311 311 310 310 311 311 312 312 313 314
303 303 304 302 301 298 295 295 300 300 298 304 303 303 303 303 305 303 300 298 300 301 291 288 285 286 288 287 289 290 295 286 294 292 294 291 290 293 293 291 288 292 292 291 292 290 295 301 294 290 290 289 291 297 298 299 299 300 300 302 303 304 304 305 309 307 307 308 309 309 309 309 309 310 310 310 309 311 310 310 310 311 309 311 311 311 313
303 303 300 297 296 290 291 294 299 304 303 301 303 298 297 297 291 292 292 290 294 296 293 292 286 289 292 289 284 294 293 290 295 289 290 293 290 290 292 290 290 290 286 288 292 299 295 293 291 290 291 296 298 299 299 301 301 303 302 303 304 304 304 305 311 306 304 305 305 306 307 308 309 309 309 309 310 309 312 313 311 312 313 312 313 313 313
301 299 297 296 293 289 290 298 302 300 304 303 300 293 290 293 290 287 288 291 290 288 291 289 286 291 290 288 290 297 293 289 288 290 286 294 289 286 291 286 291 290 287 287 291 299 289 290 291 290 290 295 296 299 301 302 302 303 303 304 304 304 304 305 308 308 306 306 306 308 309 308 308 309 311 311 310 310 313 311 311 311 312 311 311 311 311
297 293 291 292 291 294 301 302 305 301 299 292 294 291 286 290 287 284 290 286 286 289 290 286 292 292 293 290 289 289 299 292 286 286 288 290 297 287 289 289 290 287 283 284 288 297 288 285 289 289 288 294 295 300 301 302 301 302 304 304 305 305 306 305 306 311 311 311 310 310 310 311 311 310 309 308 308 310 309 311 310 310 309 309 309 309 309
296 295 294 290 295 299 301 302 301 299 293 290 289 288 287 284 288 289 288 285 285 287 293 291 293 291 293 294 294 289 297 299 296 295 292 287 295 293 288 284 291 285 284 283 290 291 289 287 287 287 289 295 296 299 300 301 301 303 305 304 305 306 305 306 307 308 312 310 310 310 311 311 311 311 311 310 311 311 309 309 308 309 309 308 308 308 310
299 299 299 300 299 298 298 296 294 290 290 290 285 283 286 286 289 288 287 282 284 288 291 293 288 290 289 292 291 293 292 298 296 292 289 285 290 288 286 287 289 284 281 288 293 290 289 284 285 286 293 297 298 301 301 300 302 303 303 305 307 308 305 305 305 306 311 311 310 311 311 311 311 311 310 310 309 311 311 309 308 309 309 309 310 309 309
299 301 300 296 294 292 293 288 290 289 283 283 282 280 285 282 285 284 285 289 293 290 290 297 294 296 296 297 293 295 292 297 290 289 288 286 291 290 287 286 285 281 286 293 289 286 284 284 284 289 295 297 299 300 300 302 303 304 305 305 306 307 308 307 305 306 311 310 311 311 310 311 310 310 310 310 310 309 313 309 310 309 309 309 309 309 309
299 298 293 290 288 289 291 280 290 286 283 284 282 278 281 281 284 286 284 285 290 288 292 289 290 289 286 293 290 289 290 292 293 291 289 291 288 285 285 283 284 290 293 288 286 283 285 287 289 292 296 298 299 300 300 301 302 303 304 306 307 308 308 309 310 311 311 312 312 311 311 310 310 311 311 310 310 309 310 311 309 310 309 309 308 308 308
290 288 288 286 284 287 285 278 289 284 279 282 284 283 284 282 285 287 285 289 290 288 292 292 291 290 287 292 292 291 290 287 293 287 284 288 285 286 284 283 288 289 285 283 284 285 286 286 293 295 295 295 297 299 300 301 302 303 304 305 307 307 307 306 309 311 311 310 310 310 310 311 310 310 311 309 312 310 311 309 309 308 309 309 308 308 308
287 286 285 281 278 284 284 281 284 281 285 287 286 288 288 289 289 289 292 293 291 291 290 290 291 290 288 291 287 286 290 289 286 287 288 288 284 282 288 291 290 284 283 284 282 281 284 288 291 293 295 297 297 299 300 302 303 303 305 303 305 307 307 306 308 311 311 311 310 310 310 310 309 309 309 312 311 309 309 311 310 309 309 308 306 306 307
288 289 288 287 282 284 287 281 283 286 288 290 292 291 291 291 292 292 293 293 291 292 292 292 291 291 287 287 288 289 290 290 285 288 289 284 283 286 290 285 281 283 280 280 282 283 286 291 294 295 297 297 298 298 300 301 302 302 303 305 305 306 307 307 307 309 310 310 310 309 309 310 310 311 311 310 309 309 308 309 309 309 308 307 306 307 306
284 288 288 280 279 283 282 285 290 290 292 292 292 292 292 293 291 290 292 293 293 293 291 290 288 289 288 293 291 286 287 288 285 286 288 286 287 284 283 283 282 284 285 283 283 288 290 293 295 295 296 297 298 298 299 300 301 302 302 304 305 305 305 306 307 308 308 308 308 308 309 310 310 310 310 309 307 308 308 308 307 308 307 307 306 306 305
290 287 284 283 285 286 286 290 290 288 290 292 292 292 291 290 289 290 293 294 292 291 292 290 288 288 284 288 286 286 284 288 282 283 288 286 282 280 280 279 281 280 285 287 287 290 292 294 295 296 297 297 298 299 300 301 301 301 302 304 305 304 305 305 305 306 308 308 308 308 309 310 310 311 310 307 306 306 307 308 307 306 305 305 304 304 304
287 286 288 285 285 286 289 290 289 287 290 291 291 290 291 290 289 291 294 292 293 292 292 291 291 286 286 286 283 285 284 287 286 286 284 283 283 284 282 279 282 282 284 289 290 292 294 295 295 295 296 297 298 299 300 301 299 301 303 305 307 304 305 304 305 306 308 308 309 309 309 310 310 309 307 305 305 305 305 305 305 305 305 305 305 305 304
290 287 287 290 286 285 288 285 285 285 287 288 289 289 290 289 290 290 294 293 292 290 288 285 286 285 284 284 283 279 283 288 284 283 283 282 286 284 283 281 284 288 290 292 293 293 294 295 295 295 295 296 298 299 300 301 301 301 302 304 306 307 306 304 307 308 308 309 309 302 307 306 307 306 306 305 305 304 303 303 304 305 305 305 305 305 305
286 283 284 287 290 289 289 290 290 290 289 290 290 291 292 289 291 292 295 292 291 286 284 287 286 284 283 280 283 285 287 285 283 284 282 285 288 284 284 286 288 290 291 291 292 293 293 294 295 294 295 295 296 299 300 300 301 301 302 304 306 306 305 304 305 307 307 307 307 306 306 306 305 306 305 304 303 303 302 302 303 304 305 305 305 306 306
Wind_Speed
18 19 20 21 23 23 24 26 25 25 26 15 12 11 8 7 4 6 8 7 5 5 7 7 3 6 10 14 14 13 12 11 11 14 10 2 1 1 2 3 2 5 4 6 9 10 7 11 6 7 6 3 2 6 8 9 9 2 3 9 6 10 0 5 9 12 11 13 14 17 16 14 13 15 16 15 15 14 10 7 8 10 11 11 10 8 3
18 18 19 22 23 23 25 25 25 23 20 14 13 10 8 10 5 4 7 6 7 6 6 9 8 9 13 13 14 12 13 12 12 11 15 1 1 2 1 4 4 8 8 10 10 8 5 6 9 2 2 1 3 5 10 11 7 7 3 3 4 3 1 4 6 7 8 9 10 13 13 11 10 11 13 16 17 17 11 12 12 8 11 14 9 9 3
17 17 18 21 22 22 24 25 24 23 21 15 10 8 8 10 10 4 7 7 7 6 6 6 7 12 15 15 17 15 10 8 11 14 14 6 4 2 3 4 3 5 9 11 11 11 9 6 9 5 8 3 2 10 9 12 7 12 10 10 5 1 4 1 4 6 7 8 10 11 10 13 10 13 15 19 23 21 14 11 6 4 5 14 5 5 7
17 16 17 19 22 22 23 24 24 24 23 19 11 6 8 4 7 6 1 5 9 10 10 8 7 11 13 12 12 14 14 12 11 14 12 12 3 3 0 2 3 5 7 9 9 9 8 11 5 8 3 1 4 6 9 10 7 4 7 4 2 2 3 4 7 6 6 8 8 11 10 9 12 15 18 20 23 21 14 5 3 5 6 8 7 3 4
16 15 17 17 19 21 22 24 25 25 26 22 12 7 5 7 5 6 7 11 5 9 9 9 8 7 12 8 11 15 16 15 12 13 10 12 7 4 3 3 2 4 5 7 11 8 8 9 10 7 9 4 0 9 7 8 9 6 2 6 2 3 4 9 5 8 10 11 8 12 17 15 16 17 16 18 19 17 12 5 5 8 8 7 4 4 3
15 15 16 17 18 20 22 23 25 26 27 28 10 7 4 5 5 6 5 7 8 10 6 11 12 16 17 10 12 15 17 16 14 12 10 15 11 9 5 3 4 9 7 8 6 9 8 7 6 9 8 8 5 5 8 8 8 4 6 4 5 5 2 8 6 7 7 5 8 9 14 14 14 15 14 15 17 18 15 9 11 8 7 3 4 3 5
15 15 15 16 17 19 20 22 26 27 29 26 8 7 5 5 6 4 11 6 9 11 15 17 16 17 8 8 12 15 17 18 15 14 16 13 12 10 9 7 6 9 8 5 7 9 8 4 7 7 8 11 6 2 6 6 6 10 7 5 4 4 5 8 7 10 9 11 11 12 13 14 14 16 17 16 18 19 15 12 13 12 9 7 3 4 4
13 14 15 16 17 18 19 22 23 26 29 22 4 7 7 7 7 8 10 9 13 12 12 13 14 11 11 8 12 15 17 20 19 15 14 13 14 16 7 11 5 11 5 6 7 9 9 9 9 7 8 9 7 4 2 1 6 7 8 5 4 2 5 2 6 7 13 15 13 13 19 15 14 16 17 18 16 15 14 9 8 8 8 4 3 8 4
13 13 14 15 16 17 19 21 21 23 25 10 9 5 7 6 6 5 9 12 8 12 12 11 11 8 10 10 14 14 18 17 19 17 14 12 15 16 16 14 3 7 5 5 9 11 13 13 11 11 10 8 6 7 1 2 4 5 5 5 4 2 2 4 1 4 5 7 7 5 8 15 17 15 15 17 17 16 12 9 6 7 7 6 6 5 3
12 12 13 14 15 15 16 19 20 19 23 8 8 7 7 6 7 7 7 10 11 12 11 12 10 7 10 13 16 13 18 17 19 14 6 11 15 14 15 9 5 1 2 5 11 14 13 13 11 9 10 11 12 10 10 9 7 4 7 4 5 3 1 3 5 5 4 12 14 16 12 8 10 13 14 14 13 12 10 12 9 8 7 4 4 8 5
11 12 12 13 14 14 15 17 19 18 13 9 9 8 9 9 10 9 7 10 10 9 10 9 10 9 14 15 18 17 16 18 17 14 10 15 15 15 13 13 11 7 8 13 13 14 13 10 10 10 11 12 13 13 12 14 9 7 6 5 4 3 5 3 5 2 3 11 13 13 9 10 9 6 10 13 14 14 14 11 10 10 9 6 3 1 8
11 11 12 12 12 13 14 15 16 16 14 9 8 7 7 8 8 7 6 8 10 11 9 9 10 12 15 18 16 16 17 18 17 15 16 14 16 15 15 12 12 8 13 14 9 8 14 10 10 10 13 14 14 15 17 15 11 8 8 5 4 3 3 3 2 1 2 5 7 4 5 8 5 7 11 14 14 15 15 10 11 14 14 11 10 12 7
11 11 11 13 11 11 12 14 15 16 15 10 8 7 7 7 7 7 8 8 8 10 9 11 14 14 16 18 18 16 17 16 15 17 13 14 14 13 13 13 13 12 13 13 9 9 9 9 9 11 13 14 15 17 17 15 12 10 8 6 3 3 4 3 2 2 1 1 4 5 2 6 11 4 10 12 12 9 9 11 12 13 13 12 13 13 9
11 11 11 13 12 10 11 13 14 14 14 11 8 8 7 6 6 7 7 6 10 10 12 13 11 16 19 19 17 18 16 15 15 13 14 14 14 13 15 12 13 12 9 10 8 5 5 4 5 7 9 9 10 10 11 13 11 10 7 5 4 4 5 1 2 1 1 2 6 5 7 3 14 2 3 9 11 10 8 5 10 11 12 13 12 10 10
11 11 11 12 13 10 10 11 13 14 13 13 9 8 8 6 4 5 6 7 11 14 12 7 12 16 19 17 16 14 13 14 15 13 15 12 11 13 16 16 14 14 10 8 6 4 3 3 4 6 5 5 5 6 7 7 6 9 8 6 3 4 2 2 3 1 2 4 7 6 3 3 2 7 12 10 5 6 5 6 5 7 11 11 11 10 9
12 10 11 13 13 12 10 10 12 13 13 14 9 8 7 7 5 6 5 6 8 10 3 12 16 16 15 14 14 15 12 12 12 13 13 12 14 19 14 18 17 18 5 4 2 3 2 2 4 6 5 4 5 4 4 4 6 6 7 6 4 3 2 3 3 4 3 3 4 4 2 1 2 8 10 13 12 6 4 6 10 5 8 9 10 11 11
12 12 11 12 13 12 10 10 11 12 12 12 9 9 8 2 4 5 6 6 6 11 15 17 14 15 13 12 12 10 11 10 12 12 13 13 18 17 17 19 17 11 11 9 3 4 4 3 4 4 6 12 8 7 11 7 5 5 5 5 6 5 3 2 4 4 5 3 4 5 3 2 6 8 9 9 13 7 5 8 7 2 4 10 10 11 10
12 11 12 12 12 12 11 10 11 12 12 10 9 8 9 6 5 6 7 7 9 12 9 10 15 12 11 11 14 11 11 11 11 11 10 13 14 13 18 15 12 10 12 6 7 2 3 3 4 2 5 3 3 4 3 10 8 4 7 6 5 5 4 4 6 5 5 5 4 4 1 2 1 7 10 6 8 8 5 7 1 10 10 7 7 12 11
12 12 12 12 12 12 11 11 11 12 12 11 9 9 8 6 5 6 7 8 7 11 13 16 14 15 13 11 11 12 10 13 13 10 10 10 8 18 20 16 7 7 10 8 8 3 6 2 3 1 2 4 5 2 8 5 5 8 7 5 6 5 3 4 6 7 6 3 6 1 2 2 4 6 11 9 4 5 5 5 7 9 10 10 9 8 10
12 12 12 12 12 12 12 11 12 12 12 11 8 9 9 11 9 7 8 8 8 13 14 16 15 15 13 13 13 11 11 10 9 10 10 11 12 18 14 3 6 11 9 8 7 7 5 7 7 1 2 4 2 4 4 5 6 5 5 3 4 3 2 4 3 3 5 4 5 4 3 2 7 12 5 3 1 4 5 9 9 10 11 12 9 7 10
12 12 12 12 13 13 13 13 13 13 12 11 9 8 9 8 10 6 7 8 8 12 12 8 12 18 16 16 15 15 14 13 13 12 11 11 10 9 7 6 11 8 7 6 7 6 4 7 9 4 4 7 2 2 3 5 8 5 6 1 2 1 7 5 3 4 1 3 2 1 2 7 6 8 3 6 3 4 8 7 8 8 8 11 12 9 4
12 12 13 13 13 13 13 13 13 13 12 11 10 8 10 8 9 9 8 8 9 10 13 19 18 19 20 18 18 15 14 14 13 11 11 10 8 8 9 12 13 8 6 7 5 3 7 7 6 6 8 8 5 5 5 5 7 8 9 7 2 4 7 6 3 7 5 3 1 3 2 3 4 8 6 8 7 4 5 7 6 7 8 10 7 10 17
12 12 12 12 13 13 13 14 13 13 13 12 9 7 9 10 9 9 10 10 10 11 12 15 16 17 18 21 21 19 17 12 9 8 9 10 10 7 9 9 9 6 6 3 5 7 9 9 8 8 9 7 7 10 9 4 4 6 7 3 8 10 5 8 9 6 5 6 4 4 1 3 7 6 7 8 14 5 2 5 6 6 7 8 8 7 11
12 12 12 12 13 14 14 14 14 13 13 12 10 9 9 9 9 9 9 9 10 13 12 11 10 7 9 13 14 12 10 11 12 12 8 8 11 9 8 9 5 6 7 9 8 9 9 6 8 8 10 9 10 8 8 4 2 3 5 6 3 8 8 8 4 12 14 3 11 10 3 5 7 4 6 6 13 5 7 6 6 6 7 8 9 6 6
13 12 13 13 14 14 14 14 14 14 13 13 12 10 10 10 9 8 9 8 7 9 11 9 12 16 17 15 12 12 11 11 10 13 12 12 11 9 12 11 10 9 12 12 9 9 5 7 9 7 10 9 9 9 3 3 3 3 4 8 6 5 5 8 6 4 1 5 5 12 9 5 6 4 3 3 7 10 3 4 7 7 6 6 6 8 6
13 13 13 14 14 14 14 14 14 13 13 13 11 9 9 10 8 9 9 8 8 7 10 11 12 13 10 14 15 14 16 13 12 11 12 15 14 12 13 11 11 8 9 9 9 8 7 7 6 8 9 8 7 7 7 10 12 11 10 9 8 6 1 2 8 3 2 6 5 4 11 2 3 1 3 4 5 9 8 4 5 11 8 7 7 3 6
13 13 13 13 13 14 14 14 14 13 13 12 9 9 10 10 9 9 9 8 7 7 7 10 9 12 14 19 19 17 15 14 12 11 11 13 15 14 13 13 13 11 10 10 8 7 6 7 7 10 9 8 9 10 10 10 9 6 7 11 8 4 3 2 9 3 2 3 7 10 6 1 2 3 5 6 7 9 10 9 9 10 10 8 3 2 3
13 13 14 13 14 14 14 14 13 12 11 11 10 10 11 12 11 11 10 9 8 8 11 13 13 15 17 21 17 13 15 14 13 14 13 14 14 13 13 13 12 11 10 8 7 6 6 9 10 6 8 10 9 8 8 10 10 9 9 5 3 2 3 3 3 2 4 3 8 7 6 7 5 4 3 4 5 6 8 7 8 9 9 6 5 6 5
14 14 14 13 13 13 13 13 12 9 9 10 9 10 11 13 14 12 9 6 7 9 9 12 14 14 10 11 16 17 14 12 12 12 12 13 14 14 14 14 13 11 12 8 7 7 7 9 7 8 8 8 8 8 8 8 6 8 10 5 3 2 5 2 3 5 7 5 6 5 4 5 5 4 5 4 3 5 6 6 6 6 7 9 8 8 7
14 14 13 13 13 13 13 12 10 8 9 8 8 7 7 2 8 5 2 6 5 3 6 8 13 7 9 12 17 18 17 15 13 12 12 12 13 13 12 12 12 11 10 7 7 8 6 6 5 10 11 10 10 7 8 9 9 10 9 10 3 2 5 2 2 5 4 2 2 7 10 7 6 4 2 4 3 2 4 6 7 7 8 9 10 10 9
14 13 13 12 13 13 12 10 10 10 9 8 6 3 4 2 4 5 8 5 2 5 6 6 12 12 14 11 12 14 14 12 11 14 13 10 12 12 11 9 9 9 7 6 7 8 4 7 6 10 11 12 8 8 10 10 10 10 11 12 10 9 7 5 5 5 2 1 1 3 8 8 5 4 3 2 3 2 2 5 2 4 7 8 10 9 8
14 13 12 12 12 12 11 11 11 10 8 8 8 7 5 7 5 6 7 6 7 7 6 9 8 7 7 7 7 10 15 16 14 9 9 8 10 10 12 11 10 8 6 6 5 5 7 6 7 11 11 10 8 9 10 11 10 12 11 13 11 10 10 8 5 4 7 4 3 2 8 7 5 4 3 2 3 3 4 4 4 1 5 6 7 8 9
13 12 12 12 12 11 11 11 11 8 9 10 16 19 19 21 20 13 9 7 7 7 4 4 8 7 6 8 14 16 13 6 6 7 8 6 10 7 8 6 8 8 7 7 5 7 6 5 6 11 12 10 7 6 10 11 13 12 13 13 12 11 11 10 9 7 5 5 5 4 6 5 3 4 6 3 4 5 5 4 4 3 4 5 6 6 8
12 12 12 12 12 11 11 11 9 10 11 10 10 9 8 15 16 14 7 6 6 3 2 4 5 8 9 9 11 9 7 9 8 7 7 6 8 7 7 7 7 6 6 9 6 5 5 7 9 9 9 7 8 7 9 13 14 15 13 13 13 13 11 10 8 8 2 11 6 6 9 5 3 5 5 5 5 5 6 3 1 2 2 4 5 6 7
12 12 12 11 11 13 11 10 8 8 9 9 10 4 5 5 5 5 8 5 5 3 3 4 4 8 9 7 6 8 9 8 8 8 8 7 7 9 7 6 4 6 5 5 5 6 7 7 8 8 10 8 7 7 7 13 13 12 12 13 12 11 10 9 9 2 3 6 10 4 9 7 6 4 6 6 5 5 6 6 3 3 2 3 4 4 6
11 11 11 10 10 8 7 9 9 7 7 8 4 5 5 3 3 4 6 6 5 5 4 4 4 9 8 10 9 5 7 9 8 8 8 6 8 5 7 4 7 7 7 6 8 7 8 6 4 9 5 8 8 8 11 11 13 12 11 11 11 11 10 10 9 1 2 4 5 10 7 5 10 8 4 4 5 3 7 7 1 5 2 3 4 6 6
10 9 7 5 4 4 6 6 6 10 4 2 5 7 5 5 5 4 6 6 7 6 6 5 8 10 9 9 5 4 7 7 7 8 8 6 7 4 6 4 7 4 4 6 7 8 9 7 7 8 7 9 9 13 14 14 15 14 11 10 10 10 10 10 2 1 5 3 4 3 5 4 9 4 3 4 3 4 4 7 3 8 5 5 6 5 6
8 6 3 3 3 2 3 4 3 3 7 5 7 4 4 4 3 3 2 4 5 5 5 6 11 10 9 9 10 7 7 8 8 7 6 4 5 5 4 4 4 4 8 6 7 8 7 4 6 8 8 11 14 15 16 15 14 13 13 12 11 11 10 10 6 5 6 5 5 6 7 8 8 5 5 5 5 4 2 1 8 10 8 6 4 4 5
8 4 3 4 3 3 1 3 3 3 4 2 1 2 3 3 2 2 3 3 2 5 6 9 10 8 8 9 9 6 7 8 9 7 8 5 5 6 3 6 3 4 7 6 7 4 6 4 5 5 8 10 11 11 12 13 14 13 13 12 12 12 10 10 3 6 4 3 3 3 2 1 6 3 4 7 6 3 5 3 4 5 6 8 7 7 6
4 5 3 2 5 5 2 6 10 6 4 3 2 1 3 3 5 5 3 3 4 5 2 6 7 8 8 9 8 9 4 6 7 8 7 8 2 6 4 4 3 4 8 7 6 6 6 6 4 5 7 8 7 10 12 12 11 9 10 12 13 11 9 8 7 7 6 3 3 3 3 3 2 3 5 3 3 2 3 3 8 9 10 8 7 6 6
4 3 4 3 4 3 3 3 3 4 2 3 2 3 2 4 4 3 1 5 5 3 5 6 5 5 5 6 7 9 6 7 7 6 5 8 4 6 5 6 3 5 6 8 4 4 4 5 5 7 6 7 7 9 12 15 14 15 14 12 10 8 8 8 8 6 10 6 2 4 4 5 6 4 4 6 6 3 4 6 7 7 8 7 6 6 5
3 2 1 3 4 4 4 3 2 2 2 2 2 5 4 3 2 3 2 4 3 2 3 3 5 6 6 5 7 7 7 5 5 4 4 7 3 5 5 4 2 5 7 4 6 4 5 6 6 7 6 8 9 11 13 13 15 16 18 17 15 13 9 9 9 8 10 9 5 3 3 3 3 2 1 5 1 3 7 8 8 7 5 6 6 6 6
3 2 2 2 1 2 2 3 3 2 2 3 2 4 3 4 4 6 4 4 2 3 2 2 5 4 7 5 7 4 6 5 5 4 4 6 3 3 4 4 3 7 6 5 4 5 6 7 7 7 7 13 13 9 11 14 15 15 15 15 12 11 13 13 13 3 14 10 10 6 7 5 3 4 2 0 4 5 5 5 7 6 6 6 6 5 5
3 1 1 2 1 2 2 5 2 2 3 3 4 5 5 6 6 3 4 1 2 3 4 6 6 7 8 5 6 4 4 5 1 2 4 3 2 4 3 4 6 5 5 5 4 8 7 5 8 8 9 9 12 16 15 14 14 15 15 16 15 14 12 17 4 12 12 9 7 6 6 4 5 3 3 4 2 6 6 7 5 7 6 6 6 6 5
3 1 1 1 2 2 2 2 2 2 5 6 5 7 5 7 4 5 1 2 3 6 7 7 7 7 9 7 5 5 2 5 0 2 3 3 5 4 4 6 4 4 4 7 5 6 5 4 8 8 11 12 14 16 18 15 13 15 14 15 15 15 11 15 8 9 10 10 9 8 5 6 6 8 7 8 10 3 7 5 6 5 5 5 5 6 5
2 3 3 3 2 3 3 4 3 4 4 4 6 7 8 7 6 6 3 4 3 5 6 7 7 7 8 6 4 5 3 4 5 4 4 3 6 7 5 5 3 6 5 6 7 8 4 4 8 10 11 13 14 15 16 15 14 14 14 15 14 14 11 12 14 7 8 9 9 7 7 8 8 9 7 4 5 1 4 2 1 3 4 3 6 4 5
1 1 2 2 2 3 3 4 6 5 4 5 5 4 5 5 5 5 5 5 6 5 6 6 6 7 8 6 5 4 4 2 4 3 3 6 5 3 3 5 6 4 6 8 7 4 6 9 9 10 12 14 15 15 15 15 13 14 14 13 13 12 10 9 11 11 2 8 9 8 8 7 8 6 5 1 3 6 6 6 6 6 5 6 5 3 2
3 2 2 3 4 3 8 7 8 8 9 8 6 3 2 3 4 5 4 3 4 5 6 6 6 5 6 5 6 8 6 3 5 6 4 5 3 4 4 3 6 5 4 6 6 5 7 8 10 11 12 13 14 15 15 15 15 15 15 14 13 13 11 11 9 8 5 8 9 8 8 7 6 6 4 2 5 4 4 5 5 3 2 1 2 2 0
1 2 3 3 2 2 5 9 9 9 7 6 4 3 4 5 5 5 5 4 5 6 5 5 4 4 6 3 5 5 6 2 5 4 1 2 3 4 3 5 6 7 1 2 6 9 10 11 11 13 13 13 14 13 14 15 15 14 13 14 10 10 10 9 6 8 3 7 9 8 8 7 7 3 3 4 4 3 4 3 6 4 3 3 4 4 2
2 2 2 3 3 6 8 8 7 6 6 5 4 5 4 5 5 4 3 4 5 5 5 6 4 4 5 3 5 3 6 3 3 3 5 7 5 3 3 8 4 3 6 7 9 11 11 12 13 14 14 13 14 14 15 15 14 14 13 12 7 8 8 10 9 8 6 8 9 8 9 6 6 6 8 4 5 5 4 4 4 6 3 5 5 5 4
1 2 3 5 7 6 5 5 4 4 4 6 5 5 3 4 4 5 2 3 4 5 4 4 3 2 3 3 3 4 1 2 3 5 5 6 3 4 6 7 7 7 8 9 10 11 12 12 12 13 13 14 14 15 15 15 15 14 13 11 7 5 6 10 8 5 6 8 7 8 9 10 8 6 8 7 5 5 7 4 3 4 3 4 4 4 3
3 4 4 6 9 10 9 9 8 8 7 5 4 3 2 5 3 4 1 3 4 4 5 3 3 4 3 6 4 3 4 3 5 5 8 4 2 4 5 7 10 10 11 12 12 12 12 11 11 12 13 13 14 15 15 15 14 13 11 10 6 4 5 6 12 4 6 7 8 8 8 8 11 7 7 9 8 5 4 3 1 2 3 3 4 5 5
Wind_Direction
341 341 342 343 341 340 338 339 338 339 344 351 347 324 298 274 343 84 136 176 192 293 297 297 324 301 332 322 321 327 307 322 326 331 340 117 142 168 265 249 281 285 294 312 313 314 294 286 280 284 316 139 245 91 177 129 147 177 281 263 280 208 156 263 264 246 197 203 191 192 214 212 225 229 234 235 219 206 216 210 215 235 233 236 225 234 221
341 340 342 343 342 340 338 336 337 337 349 348 333 320 314 310 298 188 167 194 230 281 319 333 330 328 322 326 329 322 296 327 341 338 334 38 196 187 242 322 224 264 293 292 290 314 308 297 301 300 334 288 113 156 162 158 165 177 355 14 312 306 204 313 259 183 177 208 196 192 197 218 230 235 236 232 234 221 219 228 217 227 226 228 222 213 179
340 340 342 343 342 340 337 335 333 335 337 346 332 316 312 293 272 173 161 182 217 262 311 304 319 324 329 333 322 310 329 355 355 331 337 346 147 149 213 217 260 260 288 292 283 272 255 283 312 314 276 81 168 143 183 168 229 155 193 196 172 66 279 322 288 175 180 197 190 188 187 207 223 241 248 244 234 221 199 224 230 267 312 266 231 215 152
339 339 342 343 343 341 338 334 333 332 334 341 335 311 293 322 323 2 159 190 229 245 255 259 309 322 321 315 309 327 331 344 335 348 328 345 107 216 80 259 284 258 291 300 294 300 239 230 304 296 313 339 159 160 188 176 223 204 181 215 92 265 254 224 223 280 229 198 192 181 191 185 224 225 237 246 243 231 215 204 224 260 273 284 251 34 140
337 336 340 342 344 343 339 335 334 333 331 336 328 292 235 280 324 0 327 327 318 346 326 346 334 288 296 293 332 331 336 337 325 358 321 334 337 180 155 208 26 310 334 311 311 296 281 255 258 296 308 335 33 147 202 184 224 95 303 190 280 225 314 301 277 286 284 286 229 170 187 200 216 227 233 251 251 240 231 200 210 225 263 249 41 104 142
336 334 335 341 342 345 343 337 336 335 332 331 317 299 352 327 358 346 37 297 301 327 342 324 303 286 287 322 346 330 334 333 333 334 329 321 331 329 160 215 260 273 267 295 298 315 306 347 314 307 305 313 144 167 183 239 184 228 268 168 204 293 291 287 291 284 255 280 285 214 191 209 213 231 239 236 253 269 257 211 224 226 241 256 117 250 205
333 330 333 339 341 345 345 341 339 339 332 331 299 353 358 7 326 333 21 333 310 307 297 298 287 279 337 7 338 334 333 331 337 334 324 331 330 350 336 325 245 240 246 257 285 300 312 326 300 309 318 316 331 217 158 220 194 174 242 247 276 275 283 322 325 307 296 284 254 236 207 204 221 221 228 230 241 249 236 216 209 230 234 277 53 348 85
329 328 331 337 340 346 347 345 345 338 337 324 358 35 347 15 351 328 333 305 295 307 310 299 302 324 356 345 350 333 332 330 332 332 332 323 330 341 331 326 30 304 274 242 267 298 301 309 306 310 296 299 294 311 329 322 198 205 204 224 86 9 318 316 321 320 286 259 248 206 197 206 220 223 219 219 228 238 231 230 230 222 264 285 289 99 345
326 326 329 333 337 345 347 346 347 342 341 337 357 39 21 335 346 339 314 316 307 307 303 321 323 332 352 347 343 330 331 329 328 323 322 317 328 332 330 349 59 298 321 276 288 292 293 289 281 291 295 282 317 314 188 256 307 211 237 223 149 201 286 290 91 286 285 283 252 262 228 215 214 220 222 223 220 223 217 229 218 238 218 222 235 281 163
319 319 324 329 334 341 347 347 347 350 335 345 350 2 0 344 336 310 302 293 303 301 322 313 338 346 349 341 338 331 323 321 329 321 329 328 315 330 331 353 135 274 295 244 241 254 272 276 273 269 280 297 292 288 289 314 302 306 256 243 265 107 35 342 339 333 316 316 321 324 275 243 227 220 213 219 234 228 228 237 251 259 275 240 213 188 66
312 314 319 322 327 340 346 347 345 351 352 3 344 344 350 354 338 326 315 304 300 315 316 327 346 338 335 347 332 329 321 326 332 332 325 326 325 337 326 333 357 343 340 336 339 328 301 271 263 259 264 264 279 290 289 278 269 278 273 243 266 236 120 231 211 317 306 317 327 335 285 216 226 216 234 216 218 219 221 212 216 239 238 265 295 254 129
306 310 311 311 321 336 343 344 342 346 350 344 331 318 349 341 326 325 330 309 303 306 322 329 336 326 349 336 330 325 327 330 333 336 318 318 323 335 329 344 356 343 352 340 355 347 316 278 257 263 263 267 263 262 270 277 275 272 267 250 221 167 196 273 173 246 331 320 311 282 266 236 258 224 222 236 226 213 229 226 219 233 222 237 261 270 269
300 303 305 303 312 330 337 338 337 339 347 341 328 317 335 335 324 337 330 313 297 318 322 321 310 334 337 332 328 324 325 323 334 327 324 325 320 332 335 352 359 339 346 332 339 346 331 306 275 256 254 250 257 261 258 259 259 259 267 239 283 309 317 312 281 338 169 245 216 229 206 289 295 230 199 214 246 241 213 227 220 220 236 228 234 247 271
295 295 300 300 304 320 330 332 332 335 341 343 324 318 322 318 326 338 339 323 303 304 317 297 334 337 333 334 326 322 325 331 330 329 338 331 322 333 329 355 351 329 346 337 320 354 337 288 288 266 248 244 253 256 258 255 249 263 232 250 253 292 312 7 336 9 325 291 311 286 260 24 318 227 210 181 218 216 228 228 210 205 216 227 229 226 235
288 288 289 291 298 309 322 329 328 331 334 339 320 300 305 311 310 320 319 307 302 305 292 337 341 324 327 326 324 328 331 334 333 337 332 326 319 335 321 355 340 327 333 348 331 321 286 304 297 281 254 239 234 245 246 242 224 234 263 254 307 48 299 36 317 240 178 310 323 309 264 203 205 337 317 349 359 310 238 242 261 208 222 226 236 227 223
284 286 284 288 294 302 314 324 325 325 329 335 317 313 310 325 304 293 297 302 307 303 339 351 318 326 326 318 328 331 331 328 333 326 328 330 333 325 342 350 331 312 343 12 331 291 283 281 286 292 285 265 258 269 240 255 252 228 217 237 126 113 30 306 280 284 289 291 285 293 267 308 37 293 325 329 322 287 285 216 242 200 237 239 229 228 230
281 277 277 281 287 295 306 316 319 319 324 333 321 314 308 312 265 302 307 294 279 261 290 297 311 325 319 319 330 329 336 324 333 336 327 332 331 325 340 339 319 323 4 328 9 341 316 283 359 309 310 323 321 340 315 259 251 256 186 216 237 249 261 262 262 265 256 267 282 288 347 46 303 319 315 322 327 306 230 217 220 188 224 235 232 236 227
276 270 271 276 282 291 299 307 312 312 317 322 311 308 303 301 253 283 282 282 293 289 272 299 327 318 319 316 313 322 314 312 318 315 302 320 318 348 334 326 325 353 358 360 334 272 308 341 356 338 317 311 280 309 326 325 284 240 245 229 235 235 243 237 261 278 277 249 275 278 216 139 42 323 306 298 288 291 219 208 44 331 317 325 270 226 224
268 265 267 275 281 286 293 300 304 308 313 314 310 299 280 308 301 285 291 276 273 276 288 301 301 289 297 313 312 311 303 311 314 314 321 320 345 339 320 292 317 350 355 359 337 354 342 29 145 144 276 326 347 341 318 322 323 326 311 294 277 252 287 266 253 261 272 267 270 213 261 72 304 312 305 290 294 216 199 7 300 296 330 314 313 246 217
263 263 267 273 280 284 288 294 299 304 308 309 309 299 299 294 284 266 264 278 282 284 292 293 282 295 330 315 303 304 313 309 315 316 315 311 333 335 329 335 18 345 347 6 350 353 347 353 346 303 247 302 14 277 292 266 261 267 300 261 241 300 254 248 233 263 250 255 255 268 266 347 337 327 301 18 316 357 323 301 321 330 337 327 319 284 207
260 261 266 271 278 285 286 289 294 298 302 306 306 299 298 301 295 282 239 255 275 289 290 282 310 311 304 298 291 291 299 300 310 307 311 306 325 327 324 349 323 326 339 355 334 345 353 333 340 324 323 317 22 234 307 296 285 306 286 293 263 10 269 280 253 146 221 276 307 12 247 287 358 344 359 9 25 325 325 313 314 343 342 341 337 310 304
257 259 264 271 277 281 284 286 289 293 297 301 306 293 287 296 303 306 294 274 263 261 276 293 294 286 281 276 272 268 269 286 300 304 303 300 304 297 292 290 296 317 347 346 336 320 333 337 310 316 323 321 320 289 320 308 304 337 326 315 278 204 292 338 308 304 297 326 278 249 246 299 18 35 45 301 272 242 281 311 332 350 355 345 350 345 333
254 255 259 268 275 277 281 285 287 290 294 298 297 287 293 302 298 307 311 289 279 278 279 281 278 274 268 260 255 247 242 247 267 287 283 287 288 277 282 300 306 356 310 42 356 326 311 323 310 316 307 300 314 309 300 300 304 350 331 334 278 316 360 343 321 298 347 273 266 268 277 35 40 55 49 319 290 286 36 336 339 2 11 21 11 1 9
248 253 261 266 272 276 279 284 286 288 290 292 292 292 291 297 301 307 292 287 291 296 293 271 284 288 305 314 312 316 303 278 271 276 224 215 281 285 279 267 318 330 313 328 340 313 317 303 294 303 290 294 304 300 314 326 298 302 303 307 3 325 4 360 316 331 319 320 360 326 38 50 61 8 54 354 301 292 14 15 339 12 42 33 42 39 20
248 253 259 263 268 275 280 281 283 285 289 292 289 277 277 277 269 271 291 305 306 308 298 296 283 277 281 284 303 303 299 303 303 288 283 174 197 242 267 283 314 304 303 310 320 307 292 292 297 290 291 297 306 297 304 234 288 164 290 299 316 319 28 331 311 18 55 316 15 321 323 83 58 340 358 347 311 315 60 358 360 51 60 52 53 54 42
248 252 256 261 267 272 276 280 283 285 286 288 289 287 286 287 299 300 294 280 277 280 284 289 288 284 299 319 308 312 309 291 278 276 276 284 289 282 273 273 269 262 273 286 291 284 289 279 280 280 283 288 284 291 305 321 310 312 296 288 270 269 68 297 321 353 270 222 268 279 293 75 110 216 343 350 340 339 316 62 27 42 50 33 356 30 108
247 252 256 261 266 270 276 279 280 284 287 286 283 279 276 279 276 270 270 281 308 286 244 267 306 320 325 309 303 295 287 294 293 281 271 258 254 252 253 255 262 263 262 275 273 281 282 275 273 273 272 282 308 296 294 288 301 301 290 285 282 226 264 284 296 334 36 311 307 325 322 290 300 321 353 347 350 352 2 28 39 63 28 59 357 307 39
248 252 256 259 265 270 273 277 281 284 285 289 278 278 277 271 262 256 250 247 241 263 291 292 296 302 307 283 278 298 312 302 283 276 270 269 269 270 268 270 270 276 275 270 273 262 268 271 265 264 265 272 280 291 297 289 280 267 270 298 9 278 310 324 344 328 318 283 280 296 260 271 310 303 294 294 1 4 355 13 23 54 96 99 55 28 34
244 248 252 257 264 270 274 276 281 282 288 290 288 286 276 261 250 241 245 249 246 266 280 288 290 290 292 322 318 303 300 295 288 274 268 267 269 265 261 258 262 267 266 262 261 265 266 266 283 284 281 311 320 293 306 298 299 292 291 325 144 286 196 252 217 242 244 260 296 304 300 275 278 289 298 290 315 344 360 352 19 31 47 70 75 63 59
241 245 250 258 265 268 271 272 275 278 281 287 300 292 288 313 42 19 308 251 251 274 287 305 300 292 306 303 295 295 289 284 279 279 282 284 274 273 270 264 259 252 253 255 259 259 254 272 269 274 274 270 265 279 277 281 278 279 293 307 75 277 296 269 229 258 274 230 175 284 284 287 273 262 290 310 311 297 332 341 18 17 36 56 60 57 47
239 242 249 257 263 265 266 267 268 271 274 269 276 293 284 240 71 14 15 340 352 290 295 282 280 299 289 276 279 287 294 298 299 288 273 259 267 271 273 270 260 256 260 256 252 252 253 257 267 269 273 263 262 269 272 273 278 277 290 297 313 305 313 313 292 202 181 105 303 335 289 281 289 279 255 280 342 311 269 287 11 20 353 46 65 65 59
236 241 248 257 260 258 256 259 265 265 261 265 251 253 296 317 306 316 334 326 317 293 284 291 293 293 303 299 292 307 302 287 281 294 293 293 268 234 240 246 265 269 264 264 262 268 249 248 254 266 269 273 275 269 269 268 266 272 282 287 292 296 302 306 305 275 140 159 93 21 271 263 262 285 311 337 337 322 278 271 286 16 47 53 61 71 72
234 243 252 255 253 252 253 255 257 257 262 282 300 295 284 281 276 259 240 261 266 253 268 268 275 301 284 304 314 302 290 304 316 318 306 315 297 316 289 288 280 273 245 248 244 253 254 257 259 258 256 254 254 257 262 258 262 270 276 282 287 293 292 291 292 285 265 138 131 205 258 277 281 298 319 310 284 307 293 276 278 305 81 64 67 55 55
234 243 249 249 251 254 255 257 259 261 264 265 267 255 252 224 240 251 256 238 254 274 243 263 278 280 287 306 294 305 346 355 317 318 302 308 307 308 296 305 290 290 259 253 253 252 246 250 257 267 284 265 252 255 252 259 267 277 285 289 287 282 281 288 284 272 96 100 84 317 294 279 269 287 286 267 247 256 278 270 141 95 83 69 69 68 66
233 240 246 250 251 254 256 256 259 247 255 263 259 254 68 45 34 160 181 218 233 223 220 239 257 281 295 300 303 307 3 339 321 329 305 306 325 296 301 279 284 277 289 279 257 242 258 253 273 268 264 261 251 244 257 266 271 274 272 275 281 289 291 288 290 327 126 137 132 190 251 238 241 253 257 252 254 245 250 253 192 167 133 64 76 86 79
232 239 248 250 252 258 266 250 239 248 244 244 267 92 65 71 184 188 215 218 243 285 265 261 259 270 285 294 303 327 349 310 321 311 310 323 299 305 304 305 291 268 271 257 262 247 246 249 247 263 270 266 258 260 264 266 270 270 281 289 292 288 295 293 286 230 262 262 179 162 224 261 253 243 226 261 261 286 270 268 175 107 38 357 73 61 74
228 242 240 240 262 257 245 247 227 217 245 77 130 193 211 246 232 246 246 244 219 212 259 279 268 264 272 282 291 292 324 310 333 316 322 319 315 315 291 284 279 300 287 279 277 271 261 235 245 264 267 268 269 267 274 279 277 281 285 284 284 284 283 284 13 218 262 221 266 232 227 232 267 260 258 246 230 252 256 261 122 79 33 10 52 53 65
221 184 186 224 216 242 263 238 225 115 111 157 189 238 185 173 248 215 203 228 236 209 227 235 253 268 271 276 276 308 308 300 319 314 312 313 314 310 322 299 289 299 287 289 288 293 284 249 237 255 265 262 269 273 275 280 283 281 278 279 281 281 278 283 161 208 255 237 225 250 239 230 207 204 244 233 219 198 246 354 103 139 173 194 131 121 72
154 171 220 218 232 228 259 81 155 185 243 203 201 288 230 187 230 228 209 208 195 228 225 239 257 259 264 269 275 280 284 304 301 297 294 341 327 304 299 306 328 315 296 294 285 293 280 294 293 280 269 276 269 265 263 260 263 268 272 271 268 269 270 281 217 186 235 217 245 259 267 52 299 257 153 223 171 135 260 179 84 121 131 107 92 78 85
166 193 199 210 217 239 81 150 177 187 218 238 216 204 267 204 217 249 190 223 228 233 229 250 231 246 249 268 291 296 306 289 291 304 318 314 244 277 307 299 306 298 290 286 298 326 290 291 285 276 264 269 300 351 340 310 277 273 273 276 275 273 273 270 265 187 191 97 99 258 247 205 183 174 218 211 42 41 76 102 108 72 63 64 68 99 95
198 214 209 232 264 245 186 179 206 255 243 241 230 224 229 262 223 248 256 246 260 259 177 238 259 269 247 254 264 270 253 229 264 296 295 285 305 295 280 281 318 294 281 277 295 297 306 307 293 284 292 10 351 341 356 358 349 342 322 293 278 268 265 270 261 235 136 130 202 226 216 205 189 199 187 103 78 253 170 117 102 118 130 126 114 98 94
155 191 327 320 316 330 332 285 248 236 234 225 246 248 238 260 258 226 219 261 270 297 242 208 276 285 297 302 290 297 296 295 301 285 284 282 287 289 302 296 274 267 280 288 324 303 291 281 282 278 300 337 347 355 351 353 346 337 338 347 352 339 308 280 275 264 133 136 162 194 175 187 175 150 119 101 112 232 150 128 123 120 120 109 105 92 75
156 235 335 320 293 253 228 246 200 207 212 201 212 265 225 234 229 240 242 204 219 262 295 212 268 303 267 261 273 262 295 338 302 285 278 283 316 282 280 279 285 263 275 315 296 295 280 279 278 284 330 334 332 348 348 352 345 342 342 338 338 341 329 312 290 278 125 166 184 170 156 169 158 123 121 355 197 135 106 120 123 123 117 106 93 87 84
72 133 144 217 233 258 202 256 173 164 227 203 200 231 227 239 255 216 247 275 57 239 256 288 311 315 308 329 308 308 301 274 265 313 281 282 275 277 280 270 257 281 306 275 273 273 283 286 297 337 6 360 337 339 338 342 346 345 342 338 336 334 325 319 324 140 151 155 147 156 160 152 118 56 357 299 213 135 111 103 91 93 97 101 88 74 54
136 128 204 211 227 221 117 284 183 173 227 223 213 243 256 259 274 274 289 106 208 277 300 294 303 307 301 312 300 270 256 284 329 262 278 292 277 272 268 271 292 301 284 286 282 281 269 299 4 358 5 350 336 330 327 330 346 346 338 335 333 336 331 341 276 181 153 159 158 157 134 105 84 57 35 31 332 86 116 118 117 130 106 83 76 76 58
172 160 159 165 221 252 205 241 187 223 232 234 236 231 245 267 291 301 127 168 290 298 298 312 310 298 287 295 293 304 307 288 288 273 292 285 285 276 269 280 277 283 276 268 271 276 310 10 336 336 338 337 335 321 317 323 339 340 336 337 336 336 337 348 301 223 158 148 143 115 106 107 95 83 59 39 266 297 111 118 218 99 112 117 78 45 68
176 238 247 246 247 224 196 232 224 225 252 253 253 279 302 304 307 300 302 304 289 315 305 299 295 298 298 295 289 274 263 271 272 282 289 275 265 274 285 287 276 258 272 278 282 313 330 336 331 327 336 333 328 325 319 322 328 341 337 337 335 332 338 343 317 299 113 108 101 97 89 79 77 78 63 106 99 70 61 61 38 15 22 44 70 50 52
181 202 200 212 214 204 210 226 239 250 253 264 275 280 273 292 280 274 282 317 315 302 294 308 297 302 284 276 258 271 288 284 278 267 247 269 285 280 283 255 253 267 277 294 312 357 325 329 327 333 329 329 324 321 321 318 326 342 338 335 344 343 359 354 305 255 152 101 100 93 84 77 73 59 39 114 124 128 115 79 69 56 18 258 171 141 297
255 208 204 218 232 245 238 235 229 243 247 251 245 241 251 253 263 274 293 302 295 294 308 305 299 305 278 293 287 281 270 264 265 271 249 226 224 250 265 269 285 280 337 43 325 329 323 325 326 326 326 328 324 319 318 319 320 336 337 338 349 349 356 346 273 258 149 108 110 109 106 96 93 119 144 162 169 128 122 189 206 124 70 25 31 45 40
214 240 240 249 264 260 258 268 273 269 270 270 262 242 231 248 269 291 13 299 296 295 297 286 272 264 291 311 282 294 286 277 270 284 274 270 264 264 264 270 280 326 338 332 323 322 322 325 326 321 327 326 321 316 318 318 326 333 335 338 352 336 348 323 253 209 141 133 126 122 123 124 132 168 177 167 95 92 35 4 20 79 62 70 45 38 27
242 257 252 228 234 261 292 272 248 257 259 264 264 265 258 265 268 277 59 312 300 296 287 281 308 292 266 259 275 272 266 26 297 264 257 273 287 285 285 296 320 341 328 326 323 321 326 326 322 320 322 320 318 316 314 317 321 330 328 331 350 323 325 323 296 125 128 132 138 143 149 166 172 129 90 106 108 74 69 39 38 84 102 113 125 132 125
202 214 229 230 237 253 260 271 283 281 282 286 281 268 235 255 256 272 355 286 283 280 286 310 292 284 290 271 280 299 317 293 269 286 279 277 307 302 304 311 315 323 332 329 324 322 320 318 320 317 312 310 308 309 313 315 317 322 319 324 329 327 307 317 288 202 151 147 149 169 166 122 108 108 109 91 94 106 121 113 91 109 102 99 113 121 119